Location: ?????
(42.1113°N, 44.7831°E)
Time: 19:08:56
(UTC+00:00)

Daily predictions for brighter satellites

Satellite Brightness Start Highest point End
(mag) Time Altitude Azimuth Time Altitude Azimuth Time Altitude Azimuth
CZ-2C R/B 2.9 13:53:02 10° SSE 13:58:02 77° ENE 14:02:52 10° N
Cosmos 1939 Rocket 3.2 13:56:13 10° SE 14:00:10 45° ENE 14:04:05 10° N
ERBS 3.9 13:57:58 10° W 14:00:41 25° NW 14:03:25 10° NNE
COSMOS 2455 4.2 13:59:33 10° SSE 14:03:48 20° ESE 14:08:05 10° ENE
TIMED 4.5 14:01:17 10° SSW 14:05:38 76° ESE 14:10:00 10° NNE
SJ 16-02 1.9 14:02:00 10° NNW 14:06:21 65° WSW 14:10:40 10° S
Cosmos 1656 3.7 14:04:22 10° NNW 14:09:50 57° ENE 14:15:20 10° SE
Cosmos 1697 Rocket 3.4 14:06:47 10° N 14:11:45 31° NE 14:16:41 10° ESE
Cosmos 1980 Rocket 3.5 14:10:20 10° N 14:14:16 19° NE 14:18:10 10° E
Cosmos 1500 Rocket 3.8 14:10:18 10° N 14:14:35 46° ENE 14:18:49 10° SSE
ATLAS CENTAUR R/B 3.8 14:12:26 10° WNW 14:15:07 16° NW 14:17:56 10° N
Cosmos 2034 Rocket 3.9 14:10:47 10° S 14:16:54 75° E 14:23:04 10° N
AQUARIUS 4.2 14:14:48 10° SSE 14:19:12 59° ENE 14:23:37 10° N
Cosmos 2082 Rocket 3.3 14:19:41 10° SSE 14:24:06 24° ESE 14:27:55 12° NE
CZ-4B DEB 4.2 14:20:05 10° SSE 14:25:32 62° ENE 14:30:58 10° N
Cosmos 1805 Rocket 4.1 14:21:45 10° N 14:25:45 35° ENE 14:29:42 10° SE
Cosmos 1842 Rocket 4.0 14:21:31 10° SSW 14:25:55 68° W 14:30:24 10° N
Cosmos 1898 Rocket 3.8 14:23:05 10° N 14:28:07 44° ENE 14:33:06 10° SE
Cosmos 468 Rocket 4.0 14:23:13 10° S 14:28:18 66° ESE 14:33:27 10° NNE
Cosmos 540 Rocket 4.0 14:23:39 10° S 14:28:20 38° ESE 14:33:03 10° NE
Sich 1 3.7 14:28:05 10° NNE 14:31:55 31° ENE 14:35:47 10° SE
Cosmos 1812 4.1 14:30:16 10° SE 14:32:58 18° E 14:33:43 17° ENE
H-2A R/B 2.2 14:29:53 10° SE 14:34:56 51° ENE 14:39:52 10° N
COSMOS 2406 3.5 14:29:29 10° S 14:35:00 50° ESE 14:40:32 10° NE
MOS 1-B 4.4 14:30:21 10° SSE 14:35:58 56° ENE 14:41:36 10° N
Cosmos 1782 3.4 14:32:41 10° SSE 14:36:21 36° E 14:40:02 10° NNE
Cosmos 2221 3.7 14:32:18 10° SSW 14:36:22 43° WNW 14:40:28 10° N
CORIOLIS 4.2 14:34:08 10° SSE 14:39:31 87° WSW 14:44:58 10° NNW
ISS -1.9 14:38:04 10° NW 14:40:28 18° N 14:41:27 16° NNE
Cosmos 1634 Rocket 4.1 14:34:32 10° SSE 14:40:38 54° E 14:46:47 10° NNE
GPS 2-04 Rocket1 4.2 14:41:21 10° SW 14:44:57 30° S 14:47:40 15° ESE
PAYLOAD B 4.2 14:40:57 10° SSE 14:46:32 74° ENE 14:52:08 10° N
Cosmos 1602 3.7 14:43:26 10° N 14:47:15 59° E 14:51:03 10° SSE
deb Chang Zheng 4 3.9 14:43:24 10° SE 14:47:27 42° ENE 14:51:32 10° N
Cosmos 1340 Rocket 3.4 14:45:33 10° NNW 14:49:33 60° W 14:53:34 10° S
USA 276 2.3 14:47:45 10° NW 14:50:49 49° NNE 14:51:44 35° ENE
Cosmos 1833 Rocket 2.7 14:47:05 10° SSW 14:52:42 90° ESE 14:58:22 10° NNE
Cosmos 2026 Rocket 3.9 14:48:02 10° N 14:54:11 68° E 15:00:12 10° SSE
Meteor 2-21 4.4 14:48:35 10° N 14:54:38 62° E 15:00:35 10° SSE
COSMO-SKYMED 1 2.6 14:51:22 10° NNE 14:55:33 54° E 14:59:48 10° S
Cosmos 2195 Rocket 4.4 14:50:39 10° N 14:56:49 84° E 15:03:01 10° S
ARGOS 3.3 14:51:52 10° SE 14:57:03 49° ENE 15:02:16 10° N
Lacrosse 5 rocket 3.5 14:56:06 10° N 14:57:24 11° NNE 14:57:24 11° NNE
USA 267 4.3 14:52:32 13° NE 14:57:47 36° NNW 15:03:37 10° W
ATLAS CENTAUR R/B 3.3 14:47:57 10° SW 14:58:50 71° NW 15:02:02 21° NE
Meteor 1-26 Rocket 4.3 14:53:05 10° S 14:58:56 70° E 15:04:57 10° NNE
Cosmos 2084 3.4 14:56:49 10° NNW 15:01:09 73° NE 15:05:38 10° SE
CZ-2D R/B 3.4 14:58:06 10° S 15:01:56 72° W 15:05:47 10° NNW
CZ-4B R/B 3.1 14:57:24 10° SSE 15:02:49 70° ENE 15:08:10 10° N
Helios 1B 4.5 15:01:24 13° NNE 15:05:19 70° ESE 15:09:38 10° S
Cosmos 1933 3.8 15:01:29 10° SSW 15:05:29 61° W 15:09:31 10° N
Cosmos 2360 4.1 15:00:05 10° NNW 15:05:50 74° ENE 15:11:32 10° SSE
Cosmos 1763 Rocket 4.1 15:01:51 10° SW 15:06:47 53° WNW 15:11:47 10° N
Okean O Rocket 1.6 15:03:12 10° SSE 15:07:34 59° ENE 15:11:57 10° N
Cosmos 841 Rocket 3.4 15:05:01 10° S 15:10:09 72° ESE 15:13:42 20° NNE
CZ-4C R/B 4.3 15:12:39 24° SSE 15:12:39 24° SSE 15:14:16 10° SSE
Cosmos 1633 Rocket 4.1 15:07:14 10° N 15:15:26 10° SE 15:09:42 27° NNE
Cosmos 1937 Rocket 3.4 15:07:43 10° NNW 15:13:04 80° ENE 15:18:22 10° SSE
USA 229 DEB 3.9 15:07:23 10° NW 15:14:50 90° SW 15:22:42 10° SSE
USA 229 3.9 15:07:29 10° NW 15:14:55 90° ENE 15:22:47 10° SSE
CZ-2C R/B 2.5 15:15:09 10° NNE 15:20:23 87° WNW 15:25:33 10° SSW
Meteor 2-14 Rocket 4.5 15:14:36 10° N 15:20:44 82° W 15:26:47 10° S
SL-08 RB Rocket 3.7 15:16:29 10° SSE 15:21:01 55° ENE 15:25:33 10° N
CZ-4C R/B 3.3 15:16:15 10° NNW 15:23:06 44° NE 15:26:09 32° E
Meteor 1-14 Rocket 4.2 15:19:09 10° N 15:24:57 68° ENE 15:30:49 10° SSE
MOS 1-B Rocket 4.3 15:19:19 10° N 15:25:06 68° WNW 15:31:38 10° SSW
GEOS 3 Rocket 3.6 15:28:00 42° ESE 15:29:31 58° NE 15:34:38 10° NNW
DMSP B5D2-2 4.2 15:30:31 47° E 15:30:31 47° E 15:35:30 10° S
USA 234 4.3 15:24:28 10° SSE 15:30:38 44° SW 15:36:50 10° WNW
Cosmos 1500 3.6 15:28:06 10° NNW 15:31:48 59° W 15:35:27 10° S
Cosmos 1151 Rocket 2.9 15:28:39 10° S 15:32:57 89° ESE 15:34:18 44° N
ATLAS 5 CENTAUR R/B 3.6 15:28:15 10° NNW 15:32:22 23° N 15:32:22 23° N
Cosmos 372 Rocket 3.8 15:28:46 10° NNW 15:34:01 78° ENE 15:39:15 10° SSE
Cosmos 1666 Rocket 3.4 15:29:50 10° N 15:34:18 84° E 15:38:43 10° S
Meteor 2-21 Rocket 4.5 15:33:28 10° N 15:39:36 79° W 15:45:38 10° S
Cosmos 1328 Rocket 3.5 15:36:16 10° S 15:40:15 68° SSE 15:40:15 68° SSE
Meteor 2-8 Rocket 4.3 15:36:19 10° S 15:42:26 76° E 15:47:13 18° NNE
NOSS 2-2 (D) 4.3 15:41:18 10° NNW 15:46:45 78° NE 15:49:52 36° SE
Cosmos 1570 Rocket 3.8 15:42:01 10° SSW 15:47:16 81° ESE 15:47:51 69° NE
COSMOS 2455 3.1 15:43:11 10° SW 15:49:10 66° WNW 15:51:53 33° NNE
Cosmos 2322 Rocket 4.3 15:46:03 10° N 15:46:51 13° N 15:46:51 13° N
Meteor 1-5 Rocket 4.3 15:46:07 10° NNW 15:52:08 82° W 15:58:03 10° S
Cosmos 2369 4.0 15:47:38 10° NNW 15:53:20 66° WSW 15:58:58 10° S
Cosmos 1697 Rocket 3.9 15:50:35 10° NW 15:55:47 40° WSW 16:00:58 10° S
Cosmos 1980 Rocket 2.2 15:53:15 10° NNW 15:58:55 76° WSW 16:01:31 33° S
Cosmos 1814 Rocket 4.2 15:55:59 10° SSW 16:01:12 67° WNW 16:02:07 55° NNW
SL-16 R/B 4.1 16:00:57 10° N 16:02:27 17° N 16:02:27 17° N
Cosmos 2082 Rocket 2.9 16:02:18 10° SW 16:07:48 50° WNW 16:09:48 35° N
IRAS Rocket 4.5 16:14:09 61° SSW 16:14:09 61° SSW 16:18:39 10° SSW
Cosmos 2208 Rocket 4.4 16:11:53 10° SSW 16:16:33 63° WSW 16:16:33 63° WSW
Cosmos 2278 3.9 16:12:57 10° NNW 16:18:06 67° WNW 16:18:06 67° WNW
Cosmos 2266 Rocket 4.0 16:13:54 10° N 16:26:29 11° S 16:26:43 10° S
CZ-4C R/B 3.6 17:04:40 10° NW 17:11:25 52° WSW 17:11:25 52° WSW
